QPF
0.00 0.00 0.00 0.00 0.00 0.00 0.00 0.00 0.00 0.00 0.00 0.00 0.00 0.00 0.00 0.00 0.01 0.02 0.04 0.07 0.09 0.11
0.00 0.00 0.00 0.00 0.00 0.00 0.00 0.00 0.00 0.00 0.00 0.00 0.00 0.00 0.00 0.00 0.00 0.00 0.00 0.01 0.03 0.06
0.00 0.00 0.00 0.00 0.00 0.00 0.00 0.00 0.00 0.00 0.00 0.00 0.00 0.00 0.00 0.00 0.00 0.00 0.00 0.00 0.00 0.00
0.00 0.00 0.00 0.00 0.00 0.00 0.00 0.00 0.00 0.00 0.00 0.00 0.00 0.00 0.00 0.00 0.00 0.00 0.00 0.00 0.00 0.00
0.00 0.00 0.00 0.00 0.00 0.00 0.00 0.00 0.00 0.00 0.00 0.00 0.00 0.00 0.00 0.00 0.00 0.00 0.00 0.00 0.00 0.00
0.00 0.00 0.00 0.00 0.00 0.00 0.00 0.00 0.00 0.00 0.00 0.00 0.00 0.00 0.00 0.00 0.00 0.00 0.00 0.00 0.00 0.00
0.00 0.00 0.00 0.00 0.00 0.00 0.00 0.00 0.00 0.00 0.00 0.00 0.00 0.00 0.00 0.00 0.00 0.00 0.00 0.00 0.00 0.00
0.00 0.00 0.00 0.00 0.00 0.00 0.00 0.00 0.00 0.00 0.00 0.00 0.00 0.00 0.00 0.00 0.00 0.00 0.00 0.00 0.00 0.00
0.00 0.00 0.00 0.00 0.00 0.00 0.00 0.00 0.00 0.00 0.00 0.00 0.00 0.00 0.00 0.00 0.00 0.00 0.00 0.00 0.00 0.00
0.00 0.00 0.00 0.00 0.00 0.00 0.00 0.00 0.00 0.00 0.00 0.00 0.00 0.00 0.00 0.00 0.00 0.00 0.00 0.00 0.00 0.00
0.00 0.00 0.00 0.00 0.00 0.00 0.00 0.00 0.00 0.00 0.00 0.00 0.00 0.00 0.00 0.00 0.00 0.00 0.00 0.00 0.00 0.00
0.00 0.00 0.00 0.00 0.00 0.00 0.00 0.00 0.00 0.00 0.00 0.00 0.00 0.00 0.00 0.00 0.00 0.00 0.00 0.00 0.00 0.00
0.00 0.00 0.00 0.00 0.00 0.00 0.00 0.00 0.00 0.00 0.00 0.00 0.00 0.00 0.00 0.00 0.00 0.00 0.00 0.00 0.00 0.00
0.00 0.00 0.00 0.00 0.00 0.00 0.00 0.00 0.00 0.00 0.00 0.00 0.00 0.00 0.00 0.00 0.00 0.00 0.00 0.00 0.00 0.00
MSLP
1012.47 1012.43 1012.35 1012.20 1011.96 1011.65 1011.22 1010.67 1010.06 1009.53 1008.96 1008.35 1007.77 1007.22 1006.69 1006.24 1005.72 1005.07 1004.43 1003.93 1003.46 1002.92
1013.08 1012.89 1012.80 1012.49 1012.16 1011.84 1011.42 1010.90 1010.31 1009.70 1009.08 1008.47 1007.92 1007.34 1006.75 1006.15 1005.53 1004.94 1004.38 1003.82 1003.21 1002.69
1013.27 1013.06 1012.86 1012.59 1012.40 1012.08 1011.64 1011.10 1010.51 1009.88 1009.29 1008.67 1008.03 1007.41 1006.79 1006.13 1005.43 1004.80 1004.14 1003.51 1003.01 1002.41
1013.46 1013.33 1013.20 1013.00 1012.66 1012.23 1011.73 1011.18 1010.63 1010.03 1009.46 1008.90 1008.23 1007.53 1006.82 1006.09 1005.25 1004.66 1004.13 1003.57 1002.91 1002.12
1013.64 1013.36 1013.12 1012.83 1012.50 1012.15 1011.74 1011.25 1010.70 1010.08 1009.52 1008.96 1008.33 1007.65 1006.97 1006.07 1005.43 1004.87 1004.12 1003.40 1002.79 1002.18
1013.97 1013.80 1013.55 1013.14 1012.68 1012.22 1011.75 1011.29 1010.77 1010.25 1009.60 1008.88 1008.22 1007.59 1006.91 1006.16 1005.55 1004.83 1004.03 1003.29 1002.65 1002.05
1014.31 1014.08 1013.75 1013.40 1012.90 1012.38 1011.91 1011.41 1010.82 1010.32 1009.74 1008.96 1008.28 1007.57 1006.53 1006.10 1005.36 1004.55 1003.80 1003.14 1002.65 1002.10
1014.62 1014.27 1013.94 1013.55 1013.13 1012.60 1012.13 1011.60 1011.04 1010.33 1009.76 1009.08 1008.38 1007.48 1006.92 1006.20 1005.10 1004.29 1003.62 1003.10 1002.52 1001.79
1014.75 1014.43 1014.15 1013.75 1013.30 1012.83 1012.33 1011.78 1011.13 1010.36 1009.79 1009.01 1008.25 1007.48 1006.74 1006.04 1005.21 1004.41 1003.68 1002.88 1002.17 1001.45
1015.02 1014.72 1014.43 1014.10 1013.66 1013.17 1012.59 1011.87 1011.30 1010.66 1009.93 1009.21 1008.27 1007.44 1006.49 1005.63 1005.29 1004.56 1003.64 1002.88 1002.01 1001.07
1015.29 1015.01 1014.65 1014.24 1013.91 1013.34 1012.64 1011.93 1011.35 1010.66 1009.80 1009.01 1008.32 1007.40 1006.51 1005.73 1005.16 1004.39 1003.58 1002.88 1002.11 1001.05
1015.45 1015.05 1014.71 1014.32 1013.84 1013.36 1012.48 1012.05 1011.34 1010.56 1009.76 1008.99 1008.10 1007.26 1006.47 1005.76 1004.98 1004.18 1003.37 1002.68 1001.68 1000.84
1015.47 1015.21 1014.80 1014.41 1014.02 1013.15 1012.66 1011.93 1011.13 1010.43 1009.71 1008.72 1007.84 1007.09 1006.42 1005.72 1004.85 1003.93 1002.97 1002.05 1001.39 1000.63
1015.48 1015.14 1014.79 1014.28 1013.68 1012.97 1012.47 1011.67 1011.06 1010.43 1009.43 1008.39 1007.76 1007.05 1006.34 1005.50 1004.59 1003.59 1002.52 1001.70 1000.84 1000.02
Thickness
5635 5631 5627 5624 5621 5618 5616 5615 5614 5613 5612 5610 5608 5606 5605 5603 5602 5601 5600 5598 5597 5596
5619 5616 5611 5608 5605 5601 5599 5598 5597 5595 5593 5592 5589 5586 5584 5583 5582 5581 5580 5581 5580 5579
5607 5603 5598 5594 5589 5585 5582 5580 5577 5575 5573 5570 5568 5565 5563 5562 5561 5559 5560 5559 5558 5558
5592 5587 5581 5576 5572 5568 5565 5562 5558 5555 5552 5548 5545 5542 5541 5540 5540 5540 5538 5537 5537 5540
5577 5572 5567 5562 5558 5553 5548 5543 5539 5536 5531 5526 5522 5519 5515 5516 5514 5513 5515 5516 5516 5519
5558 5552 5546 5541 5538 5533 5528 5522 5516 5510 5506 5503 5499 5494 5490 5489 5490 5493 5493 5493 5494 5495
5538 5531 5526 5521 5517 5511 5505 5498 5492 5484 5478 5475 5471 5467 5468 5465 5468 5471 5472 5471 5470 5469
5517 5512 5506 5499 5492 5485 5477 5471 5464 5459 5454 5449 5445 5445 5440 5441 5446 5448 5449 5447 5447 5449
5498 5490 5480 5473 5465 5458 5452 5445 5441 5437 5432 5432 5429 5427 5425 5424 5427 5427 5427 5429 5431 5432
5475 5466 5456 5447 5439 5431 5427 5423 5419 5415 5413 5411 5411 5409 5410 5410 5406 5405 5407 5407 5409 5413
5448 5438 5429 5421 5413 5408 5406 5404 5400 5398 5396 5395 5392 5391 5390 5388 5385 5383 5382 5380 5380 5386
5422 5415 5407 5400 5395 5391 5392 5387 5384 5381 5380 5377 5377 5373 5368 5364 5363 5362 5359 5355 5358 5357
5400 5394 5388 5382 5376 5377 5371 5370 5367 5365 5360 5359 5356 5351 5344 5338 5336 5335 5334 5334 5333 5333
5383 5377 5370 5367 5362 5360 5355 5353 5348 5344 5342 5340 5332 5326 5320 5316 5313 5312 5312 5312 5313 5315